When you browse on this site, cookies collect data to enhance your experience and personalize the content and advertising you see.
Visit our Privacy Policy to learn more. By continuing to use the site, you agree to this use of cookies and data.
  • In Hungary
  • List of Countries
  • For 7 days
  • Water Temperature
  • Satellite Maps
  • Weather Map
  • News
  • Weather Widgets
  • user-avatar
    Login

    Hourly Weather Sosnovka

    Today, 19 January, Saturday

    Time Temperature Precipitation Wind Pressure Humidity
    00:00 -4°C° 0 mm 5 mps 744 mmHg 92%
    01:00 -4°C° 0.2 mm 5 mps 743 mmHg 92%
    02:00 -4°C° 0.2 mm 6 mps 743 mmHg 92%
    03:00 -3°C° 0 mm 7 mps 742 mmHg 92%
    04:00 -3°C° 0.7 mm 7 mps 742 mmHg 91%
    05:00 -2°C° 0.7 mm 7 mps 741 mmHg 90%
    06:00 -2°C° 0.7 mm 7 mps 741 mmHg 88%
    07:00 -2°C° 0.1 mm 6 mps 741 mmHg 89%
    08:00 -2°C° 0.1 mm 6 mps 741 mmHg 89%
    09:00 -2°C° 0 mm 6 mps 742 mmHg 88%
    10:00 -1°C° 0.2 mm 5 mps 742 mmHg 89%
    11:00 -2°C° 0.2 mm 5 mps 743 mmHg 89%
    12:00 -2°C° 0.2 mm 5 mps 743 mmHg 89%
    13:00 -4°C° 0 mm 4 mps 744 mmHg 90%
    14:00 -6°C° 0 mm 3 mps 744 mmHg 90%
    15:00 -6°C° 0 mm 2 mps 745 mmHg 91%
    16:00 -8°C° 0 mm 2 mps 745 mmHg 92%
    17:00 -10°C° 0 mm 2 mps 746 mmHg 92%
    18:00 -10°C° 0 mm 1 mps 746 mmHg 93%
    19:00 -11°C° 0 mm 1 mps 746 mmHg 93%
    20:00 -11°C° 0 mm 1 mps 747 mmHg 94%
    21:00 -14°C° 0 mm 2 mps 747 mmHg 94%
    22:00 -15°C° 0 mm 2 mps 747 mmHg 95%
    23:00 -15°C° 0 mm 2 mps 747 mmHg 96%

    Tomorrow, 20 January, Sunday

    Time Temperature Precipitation Wind Pressure Humidity
    00:00 -16°C° 0 mm 2 mps 748 mmHg 97%
    01:00 -15°C° 0 mm 2 mps 748 mmHg 97%
    02:00 -14°C° 0 mm 2 mps 748 mmHg 97%
    03:00 -14°C° 0 mm 2 mps 748 mmHg 97%
    04:00 -13°C° 0 mm 2 mps 748 mmHg 97%
    05:00 -13°C° 0 mm 2 mps 748 mmHg 97%
    06:00 -13°C° 0 mm 2 mps 748 mmHg 96%
    07:00 -13°C° 0 mm 3 mps 749 mmHg 95%
    08:00 -13°C° 0 mm 3 mps 749 mmHg 94%
    09:00 -13°C° 0 mm 3 mps 749 mmHg 94%
    10:00 -13°C° 0 mm 3 mps 750 mmHg 93%
    11:00 -13°C° 0 mm 3 mps 750 mmHg 92%
    12:00 -14°C° 0 mm 4 mps 750 mmHg 91%
    13:00 -13°C° 0 mm 3 mps 750 mmHg 92%
    14:00 -14°C° 0 mm 3 mps 750 mmHg 92%
    15:00 -14°C° 0 mm 3 mps 750 mmHg 93%
    16:00 -14°C° 0 mm 3 mps 750 mmHg 94%
    17:00 -14°C° 0 mm 3 mps 750 mmHg 94%
    18:00 -15°C° 0 mm 4 mps 750 mmHg 95%
    19:00 -14°C° 0.1 mm 4 mps 750 mmHg 94%
    20:00 -12°C° 0.1 mm 4 mps 749 mmHg 93%
    21:00 -12°C° 0.1 mm 5 mps 749 mmHg 92%
    22:00 -12°C° 0.2 mm 5 mps 748 mmHg 92%
    23:00 -12°C° 0.2 mm 5 mps 748 mmHg 91%

    Day after tomorrow, 21 January, Monday

    Time Temperature Precipitation Wind Pressure Humidity
    00:00 -12°C° 0.2 mm 5 mps 748 mmHg 90%
    01:00 -12°C° 0.1 mm 5 mps 747 mmHg 91%
    02:00 -12°C° 0.1 mm 5 mps 747 mmHg 91%
    03:00 -12°C° 0.1 mm 5 mps 747 mmHg 91%
    04:00 -12°C° 0.2 mm 5 mps 747 mmHg 91%
    05:00 -12°C° 0.2 mm 5 mps 746 mmHg 91%
    06:00 -11°C° 0.2 mm 5 mps 746 mmHg 91%
    07:00 -11°C° 0.2 mm 5 mps 746 mmHg 91%
    08:00 -11°C° 0.2 mm 5 mps 746 mmHg 90%
    09:00 -11°C° 0.2 mm 5 mps 746 mmHg 90%
    10:00 -11°C° 0 mm 5 mps 746 mmHg 89%
    11:00 -11°C° 0 mm 5 mps 746 mmHg 88%
    12:00 -11°C° 0 mm 5 mps 746 mmHg 87%
    13:00 -11°C° 0.1 mm 5 mps 746 mmHg 87%
    14:00 -11°C° 0.1 mm 5 mps 746 mmHg 87%
    15:00 -10°C° 0.1 mm 4 mps 746 mmHg 86%
    16:00 -11°C° 0.1 mm 4 mps 746 mmHg 87%
    17:00 -12°C° 0.1 mm 4 mps 746 mmHg 88%
    18:00 -14°C° 0.1 mm 4 mps 746 mmHg 89%
    19:00 -15°C° 0 mm 4 mps 746 mmHg 91%
    20:00 -15°C° 0 mm 3 mps 746 mmHg 92%
    21:00 -16°C° 0 mm 3 mps 746 mmHg 93%
    22:00 -16°C° 0 mm 3 mps 746 mmHg 93%
    23:00 -16°C° 0 mm 3 mps 747 mmHg 94%

    22 January, Tuesday

    Time Temperature Precipitation Wind Pressure Humidity
    00:00 -16°C° 0 mm 3 mps 747 mmHg 94%
    01:00 -16°C° 0 mm 3 mps 747 mmHg 94%
    02:00 -16°C° 0 mm 3 mps 748 mmHg 94%
    03:00 -16°C° 0 mm 3 mps 748 mmHg 95%
    04:00 -17°C° 0.1 mm 3 mps 748 mmHg 95%
    05:00 -17°C° 0.1 mm 3 mps 748 mmHg 95%
    06:00 -18°C° 0.1 mm 3 mps 749 mmHg 94%
    07:00 -18°C° 0 mm 3 mps 749 mmHg 95%
    08:00 -19°C° 0 mm 3 mps 750 mmHg 95%
    09:00 -21°C° 0 mm 3 mps 750 mmHg 95%
    10:00 -21°C° 0 mm 3 mps 751 mmHg 94%
    11:00 -21°C° 0 mm 3 mps 751 mmHg 93%
    12:00 -21°C° 0 mm 3 mps 751 mmHg 92%
    13:00 -21°C° 0 mm 3 mps 752 mmHg 93%
    14:00 -20°C° 0 mm 2 mps 752 mmHg 93%
    15:00 -20°C° 0 mm 2 mps 753 mmHg 94%
    16:00 -21°C° 0 mm 2 mps 753 mmHg 95%
    17:00 -24°C° 0 mm 2 mps 754 mmHg 97%
    18:00 -25°C° 0 mm 2 mps 754 mmHg 98%
    19:00 -25°C° 0 mm 2 mps 755 mmHg 98%
    20:00 -26°C° 0 mm 2 mps 755 mmHg 98%
    21:00 -26°C° 0 mm 2 mps 755 mmHg 99%
    22:00 -26°C° 0 mm 2 mps 755 mmHg 99%
    23:00 -26°C° 0 mm 2 mps 756 mmHg 99%

    23 January, Wednesday

    Time Temperature Precipitation Wind Pressure Humidity
    00:00 -27°C° 0 mm 2 mps 756 mmHg 99%
    01:00 -26°C° 0 mm 2 mps 756 mmHg 99%
    02:00 -26°C° 0 mm 2 mps 756 mmHg 99%
    03:00 -26°C° 0 mm 2 mps 756 mmHg 98%
    04:00 -26°C° 0 mm 2 mps 756 mmHg 98%
    05:00 -26°C° 0 mm 3 mps 755 mmHg 98%
    06:00 -25°C° 0 mm 3 mps 755 mmHg 98%
    07:00 -24°C° 0.1 mm 3 mps 755 mmHg 97%
    08:00 -23°C° 0.1 mm 4 mps 755 mmHg 96%
    09:00 -22°C° 0.1 mm 4 mps 755 mmHg 94%
    10:00 -20°C° 0.1 mm 4 mps 755 mmHg 94%
    11:00 -20°C° 0.1 mm 5 mps 755 mmHg 93%
    12:00 -19°C° 0.1 mm 5 mps 754 mmHg 92%
    13:00 -18°C° 0 mm 4 mps 754 mmHg 92%
    14:00 -17°C° 0 mm 4 mps 754 mmHg 92%
    15:00 -17°C° 0 mm 4 mps 754 mmHg 92%
    16:00 -18°C° 0 mm 4 mps 754 mmHg 92%
    17:00 -18°C° 0 mm 4 mps 754 mmHg 93%
    18:00 -18°C° 0 mm 4 mps 753 mmHg 93%
    19:00 -18°C° 0 mm 3 mps 753 mmHg 94%
    20:00 -18°C° 0 mm 3 mps 753 mmHg 94%
    21:00 -18°C° 0 mm 3 mps 753 mmHg 95%
    22:00 -19°C° 0 mm 3 mps 753 mmHg 95%
    23:00 -19°C° 0 mm 3 mps 753 mmHg 96%

    24 January, Thursday

    Time Temperature Precipitation Wind Pressure Humidity
    00:00 -18°C° 0 mm 2 mps 753 mmHg 96%
    01:00 -19°C° 0 mm 2 mps 753 mmHg 96%
    02:00 -19°C° 0 mm 2 mps 753 mmHg 96%
    03:00 -19°C° 0 mm 2 mps 753 mmHg 96%
    04:00 -19°C° 0 mm 2 mps 753 mmHg 97%
    05:00 -19°C° 0 mm 2 mps 753 mmHg 97%
    06:00 -19°C° 0 mm 2 mps 752 mmHg 97%
    07:00 -17°C° 0 mm 1 mps 753 mmHg 97%
    08:00 -17°C° 0 mm 1 mps 753 mmHg 97%
    09:00 -17°C° 0 mm 1 mps 753 mmHg 97%
    10:00 -16°C° 0 mm 1 mps 753 mmHg 96%
    11:00 -15°C° 0 mm 1 mps 753 mmHg 95%
    12:00 -14°C° 0 mm 0 mps 753 mmHg 93%
    13:00 -15°C° 0 mm 0 mps 753 mmHg 94%
    14:00 -15°C° 0 mm 0 mps 753 mmHg 95%
    15:00 -15°C° 0 mm 0 mps 752 mmHg 95%
    16:00 -17°C° 0 mm 0 mps 753 mmHg 96%
    17:00 -18°C° 0 mm 1 mps 753 mmHg 97%
    18:00 -19°C° 0 mm 1 mps 753 mmHg 98%
    19:00 -19°C° 0 mm 1 mps 753 mmHg 98%
    20:00 -19°C° 0 mm 1 mps 753 mmHg 98%
    21:00 -20°C° 0 mm 1 mps 753 mmHg 98%
    22:00 -20°C° 0 mm 1 mps 753 mmHg 98%
    23:00 -20°C° 0 mm 1 mps 753 mmHg 98%
    Show more